[[{"header":{"parameterUnit":"m.s-1","parameterCategory":1,"la1":30.2991,"la2":30.254,"lo1":-89.0895,"lo2":-89.0444,"dy":0.0017,"dx":0.0017,"nx":28,"ny":28,"refTime":"2024-05-27T21:00:00:Z","depth":0,"parameterNumber":2,"parameterNumberName":"U-component_of_WINDS"},"data":[0,0,0,0,0,0,0,0,0,0,0,0,0,0,0,0,0,0,0,0,0,0,0,0,0,0,0,0,0,0,0,0,0,0,0,0,0,0,0,0,0,0,0,0,0,0,0,0,0,0,0,0,0,0,0,0,0,0,1.9294,1.9296,0,1.9463,1.9465,1.9467,1.9423,1.942,1.9417,1.9413,1.9594,1.9601,1.9609,0,0,0,0,0,0,0,0,0,0,0,0,0,1.8942,1.8948,1.9294,1.9296,1.9298,1.9463,1.9465,1.9467,1.9424,1.942,1.9416,1.9412,1.9591,1.96,1.961,0,0,0,0,0,0,0,0,0,0,0,0,0,1.9101,1.895,1.9293,1.9296,1.9298,1.9462,1.9465,1.9468,1.9425,1.942,1.9415,1.941,1.9588,1.9599,1.9611,1.9785,0,0,1.9648,1.9653,0,0,0,0,0,0,0,0,1.9092,1.9114,1.9293,1.9296,1.9298,1.9417,1.9407,1.9575,1.9426,1.9377,1.9413,1.9407,1.9539,1.9555,1.9598,1.9794,1.9802,1.9649,1.9656,1.9661,1.9664,0,0,0,0,0,0,0,1.9081,1.9107,1.9361,1.9296,1.9299,1.9291,1.9309,1.9438,1.9485,1.9381,1.9378,1.9398,1.954,1.9587,1.9602,1.9804,1.9648,1.9659,1.9666,1.9671,2.0156,2.0161,0,0,0,0,0,0,1.9067,1.9098,1.9355,1.9366,1.9181,1.9302,1.9321,1.9384,1.9483,1.9493,1.9402,1.9396,1.9569,1.9588,1.9608,1.9821,1.9661,1.9672,1.9679,2.015,2.0157,2.0163,0,0,0,0,0,0,1.906,1.909,1.9349,1.9231,1.9263,1.9313,1.9384,1.939,1.9437,1.9499,1.9508,1.9441,1.9565,1.9591,1.9742,1.9827,1.9677,1.9688,2.0143,2.0152,2.016,2.0248,0,0,0,0,0,0,1.905,1.9088,1.9153,1.9233,1.927,1.9478,1.9389,1.9397,1.9456,1.9449,1.9538,1.9548,1.9563,1.9725,1.9754,1.9841,1.9697,2.0136,2.0147,2.0158,2.0238,2.0258,2.0276,0,0,0,0,0,1.9037,1.9171,1.9156,1.9187,1.9351,1.9482,1.9504,1.9517,1.9463,1.953,1.9571,1.9545,1.9812,1.974,1.9773,1.9865,2.0131,2.0144,2.0157,2.0229,2.0254,2.0276,0,0,0,0,0,0,1.9101,1.9182,1.9166,1.9329,1.9399,1.9475,1.9559,1.9543,1.9632,1.9621,1.9636,1.9657,1.9812,1.9853,1.9771,2.004,1.9964,1.9984,2.0008,2.0032,2.0051,2.0039,1.9707,0,0,0,0,0,1.9134,1.9231,1.9297,1.9435,1.9471,1.9509,1.9567,1.9571,1.9645,1.9675,1.9727,1.9802,1.9903,1.997,2.0066,2.0243,2.0264,2.0322,2.0341,2.0357,2.0375,2.0475,2.0503,2.0206,2.0206,2.0206,0,0,1.9203,1.9259,1.932,1.9449,1.9504,1.9608,1.9535,1.9647,1.9725,1.9693,1.9839,1.988,1.9965,2.013,2.0205,2.0169,2.0461,2.0373,2.0385,2.0395,2.0491,2.052,2.0545,2.0215,2.0213,2.0212,0,0,1.9383,1.9434,1.9556,1.9612,1.9696,1.9721,1.975,1.9829,1.9855,2.0,1.998,2.0074,2.0247,2.031,2.0364,2.057,2.0551,2.0601,2.0703,2.0801,2.0824,2.0845,2.0922,2.0949,2.0619,2.0619,2.0619,0,1.946,1.9612,1.9621,1.9736,1.9795,1.9769,1.9895,1.995,2.0062,2.0105,2.0062,2.0281,2.0336,2.0517,2.0568,2.0611,2.0649,2.0592,2.0819,2.084,2.086,2.0934,2.0963,2.0625,2.0624,2.0623,2.0623,0,1.9704,1.9811,1.99,2.0007,2.0076,2.0196,2.0226,2.0295,2.0294,2.0325,2.0476,2.0541,2.0652,2.0695,2.0695,2.0878,2.0853,2.0815,2.0739,2.0894,2.0964,2.0992,2.0633,2.0631,2.0629,2.0628,0,0,1.9929,2.004,2.0073,2.0123,2.0214,2.0299,2.0419,2.0525,2.0586,2.0664,2.0768,2.0916,2.0882,2.0944,2.0951,2.1036,2.12,2.0988,2.099,2.1028,2.141,2.144,2.1473,2.1187,2.1192,2.1196,2.1404,0,2.012,2.0329,2.0341,2.0532,2.0633,2.0611,2.0717,2.0786,2.0818,2.0911,2.0947,2.1053,2.0998,2.1036,2.1119,2.1162,2.1278,2.1147,2.1287,2.1292,2.1269,2.1508,2.154,2.1733,2.1431,2.1435,2.1439,0,2.0369,2.0454,2.0655,2.0735,2.0778,2.0872,2.0972,2.106,2.1139,2.1157,2.1227,2.1223,2.135,2.1268,2.1446,2.1357,2.1415,2.1445,2.1453,2.1469,2.1377,2.1534,2.1794,2.1824,2.1481,2.1478,2.1475,0,2.0518,2.0682,2.0825,2.0868,2.0963,2.1031,2.1074,2.1148,2.1212,2.1301,2.1344,2.1446,2.1503,2.1584,2.161,2.1547,2.1788,2.1707,2.181,2.1809,2.1863,2.186,2.214,2.1896,2.1895,2.1895,2.1894,0,2.073,2.0855,2.0893,2.0981,2.1121,2.1136,2.1275,2.1315,2.1381,2.1479,2.1466,2.1559,2.1585,2.1683,2.1704,2.185,2.1875,2.1896,2.1901,2.1899,2.1897,2.1939,2.1928,2.1902,2.1901,2.1899,2.1898,0,2.092,2.095,2.1105,2.1182,2.1205,2.1306,2.1374,2.146,2.149,2.1615,2.1645,2.1694,2.181,2.1842,2.198,2.1994,2.2167,2.2158,2.214,2.2141,2.2243,2.2235,2.2563,2.2608,2.2331,2.2334,2.2336,0,2.1055,2.1151,2.1239,2.1303,2.1349,2.1452,2.1517,2.1536,2.1605,2.1704,2.178,2.1893,2.1985,2.2171,2.2221,2.2328,2.2323,2.2431,2.2339,2.2336,2.2329,2.2324,2.2336,2.2449,2.2452,2.2454,2.2456,0,2.1294,2.1304,2.1398,2.1498,2.1577,2.1657,2.1734,2.1788,2.1818,2.1897,2.2014,2.2085,2.2227,2.2341,2.245,2.2497,2.2485,2.2484,2.2514,2.2515,2.2502,2.2514,2.2191,2.2477,2.2475,2.2474,2.2472,2.2472,2.1463,2.1548,2.1624,2.173,2.179,2.1863,2.1949,2.199,2.2087,2.2203,2.2208,2.2337,2.2417,2.2561,2.2615,2.2717,2.2686,2.2729,2.274,2.2751,2.2762,2.2483,2.2737,2.2736,2.2736,2.2735,2.2735,0,2.1703,2.1751,2.1848,2.1956,2.2041,2.2018,2.2103,2.2176,2.2288,2.2363,2.2454,2.259,2.2701,2.276,2.2872,2.2943,2.294,2.2972,2.2969,2.2981,2.2781,2.2746,2.2973,2.2973,2.2973,2.2973,2.2973,2.2973,2.1838,2.1982,2.2002,2.2177,2.2225,2.2349,2.24,2.2469,2.2529,2.2681,2.2773,2.281,2.288,2.2997,2.3099,2.3114,2.3157,2.3194,2.3205,2.3019,2.2994,2.2971,2.2938,2.3202,2.3202,2.3397,2.3399,2.34]},{"header":{"parameterUnit":"m.s-1","parameterCategory":1,"la1":30.2991,"la2":30.254,"lo1":-89.0895,"lo2":-89.0444,"dy":0.0017,"dx":0.0017,"nx":28,"ny":28,"refTime":"2024-05-27T21:00:00:Z","depth":0,"parameterNumber":3,"parameterNumberName":"V-component_of_WINDS"},"data":[0,0,0,0,0,0,0,0,0,0,0,0,0,0,0,0,0,0,0,0,0,0,0,0,0,0,0,0,0,0,0,0,0,0,0,0,0,0,0,0,0,0,0,0,0,0,0,0,0,0,0,0,0,0,0,0,0,0,3.466,3.4662,0,3.4846,3.4848,3.485,3.4844,3.4841,3.4839,3.4836,3.5022,3.5029,3.5037,0,0,0,0,0,0,0,0,0,0,0,0,0,3.4297,3.4304,3.466,3.4662,3.4665,3.4845,3.4848,3.485,3.4844,3.4841,3.4838,3.4835,3.502,3.5028,3.5037,0,0,0,0,0,0,0,0,0,0,0,0,0,3.4466,3.4306,3.4659,3.4683,3.4687,3.4845,3.4848,3.4851,3.4845,3.4841,3.4837,3.4834,3.5017,3.5028,3.5038,3.5183,0,0,3.5072,3.5077,0,0,0,0,0,0,0,0,3.4456,3.4479,3.4678,3.4682,3.4687,3.4818,3.4788,3.4962,3.4846,3.4785,3.4836,3.4832,3.4957,3.4973,3.5016,3.5192,3.52,3.5073,3.508,3.5084,3.5088,0,0,0,0,0,0,0,3.4444,3.4471,3.4733,3.468,3.4686,3.4684,3.4704,3.4821,3.489,3.479,3.479,3.4812,3.4959,3.5005,3.502,3.5203,3.5073,3.5083,3.5089,3.5094,3.5508,3.5513,0,0,0,0,0,0,3.4428,3.4461,3.4727,3.4739,3.456,3.4693,3.4716,3.478,3.4889,3.4902,3.4815,3.4811,3.4988,3.5007,3.5027,3.5205,3.5084,3.5095,3.5101,3.5504,3.5509,3.5514,0,0,0,0,0,0,3.442,3.4452,3.472,3.46,3.4634,3.4704,3.4776,3.4785,3.4832,3.4908,3.492,3.4851,3.4986,3.5011,3.5145,3.5212,3.51,3.511,3.5499,3.5506,3.5512,3.5562,0,0,0,0,0,0,3.441,3.4449,3.4506,3.4602,3.4641,3.4836,3.478,3.4792,3.4851,3.4848,3.4944,3.4956,3.4985,3.5129,3.5156,3.5225,3.5118,3.5493,3.5502,3.551,3.5555,3.557,3.5582,0,0,0,0,0,3.4397,3.4511,3.4508,3.4541,3.4713,3.484,3.4862,3.4894,3.4857,3.4914,3.4963,3.4953,3.5199,3.5142,3.5173,3.5246,3.5489,3.5499,3.5509,3.5549,3.5567,3.5582,0,0,0,0,0,0,3.4419,3.4524,3.4522,3.4671,3.4747,3.4839,3.4912,3.4912,3.4999,3.4992,3.5026,3.5048,3.5183,3.5227,3.5162,3.5393,3.5339,3.5356,3.5359,3.5377,3.539,3.5377,3.5127,0,0,0,0,0,3.4441,3.4537,3.4623,3.4746,3.4784,3.4842,3.4898,3.4916,3.4996,3.5028,3.5086,3.5163,3.5258,3.5319,3.541,3.5561,3.5582,3.5626,3.564,3.5651,3.5665,3.575,3.5771,3.5547,3.5547,3.5547,0,0,3.4488,3.4557,3.4615,3.4752,3.4813,3.4911,3.4869,3.4974,3.5047,3.5043,3.5175,3.522,3.5308,3.5451,3.5517,3.5492,3.5731,3.5663,3.5671,3.568,3.5762,3.5783,3.5802,3.5554,3.5552,3.5551,0,0,3.4624,3.4685,3.4796,3.4858,3.4952,3.499,3.5016,3.5109,3.514,3.5273,3.5272,3.5359,3.5521,3.5584,3.5637,3.5799,3.5794,3.5827,3.5899,3.5982,3.5999,3.6015,3.6075,3.6095,3.5841,3.5841,3.5841,0,3.467,3.4819,3.4852,3.4959,3.502,3.5022,3.5134,3.5193,3.5311,3.5352,3.5323,3.5528,3.5587,3.5746,3.5786,3.5828,3.586,3.5817,3.5994,3.601,3.6026,3.6083,3.6105,3.5845,3.5844,3.5844,3.5843,0,3.4872,3.4975,3.5053,3.517,3.5239,3.5347,3.5396,3.5462,3.5474,3.5514,3.565,3.5721,3.5827,3.5866,3.5877,3.6027,3.601,3.5987,3.5934,3.605,3.6105,3.6126,3.585,3.5848,3.5847,3.5846,0,0,3.5027,3.5162,3.519,3.5244,3.5348,3.5429,3.5537,3.5643,3.57,3.5781,3.5874,3.6011,3.5992,3.6052,3.6071,3.6143,3.6269,3.6112,3.6114,3.614,3.644,3.6458,3.6483,3.6265,3.627,3.6273,3.6434,0,3.5175,3.5371,3.5404,3.5575,3.5672,3.5676,3.5771,3.5845,3.5886,3.5973,3.6017,3.6115,3.6081,3.6118,3.6189,3.6238,3.633,3.6227,3.6352,3.6356,3.6333,3.6511,3.653,3.6678,3.6455,3.6458,3.6461,0,3.5375,3.5464,3.5646,3.5739,3.5781,3.5866,3.5967,3.605,3.6134,3.6158,3.6227,3.6238,3.6351,3.6292,3.6448,3.6378,3.643,3.6462,3.6469,3.6483,3.6417,3.6532,3.6726,3.6749,3.6494,3.6492,3.6489,0,3.5473,3.5638,3.5769,3.5814,3.5925,3.5986,3.6034,3.6115,3.6177,3.6264,3.6306,3.6404,3.6458,3.6534,3.6571,3.6525,3.6725,3.6669,3.6749,3.6749,3.6793,3.679,3.7,3.6823,3.6823,3.6823,3.6822,0,3.5636,3.5747,3.5814,3.5895,3.602,3.6056,3.6178,3.6225,3.6297,3.6387,3.6395,3.6478,3.6521,3.6611,3.664,3.6766,3.6789,3.6813,3.682,3.6814,3.6811,3.685,3.6841,3.6829,3.6827,3.6826,3.6825,0,3.5767,3.5816,3.5959,3.6054,3.608,3.6168,3.6249,3.6327,3.6367,3.6481,3.6509,3.6572,3.6679,3.6723,3.6852,3.6872,3.7017,3.7015,3.699,3.6992,3.7071,3.7064,3.7315,3.7351,3.7148,3.715,3.7152,0,3.5869,3.5955,3.606,3.6122,3.6173,3.6272,3.6336,3.6375,3.6442,3.6545,3.6611,3.6717,3.6805,3.6974,3.7031,3.713,3.7132,3.7213,3.7146,3.7138,3.7135,3.7131,3.714,3.7225,3.7227,3.7229,3.723,0,3.6046,3.6067,3.616,3.6263,3.6341,3.6423,3.6503,3.6552,3.6604,3.6678,3.6788,3.6856,3.699,3.7096,3.7199,3.7248,3.7249,3.7251,3.7275,3.7271,3.7254,3.7266,3.7025,3.7245,3.7244,3.7243,3.7242,3.7241,3.6167,3.6245,3.6332,3.6436,3.6501,3.6577,3.6656,3.6707,3.68,3.6914,3.693,3.7048,3.713,3.7269,3.7322,3.7414,3.7394,3.7428,3.7437,3.7446,3.7452,3.7237,3.7433,3.7432,3.7432,3.7432,3.7432,0,3.6346,3.6403,3.6499,3.6612,3.6695,3.6689,3.6778,3.6847,3.6952,3.7029,3.7116,3.7243,3.7346,3.7412,3.7516,3.7577,3.758,3.7603,3.76,3.7612,3.7464,3.7434,3.7599,3.7599,3.7599,3.7599,3.7599,3.7599,3.6449,3.6582,3.6613,3.6777,3.6832,3.695,3.7002,3.7071,3.7134,3.7276,3.7363,3.7405,3.7479,3.7588,3.7683,3.7699,3.7738,3.7763,3.7778,3.7639,3.7622,3.7605,3.7577,3.7771,3.7771,3.7919,3.7921,3.7922]}]]